Address 0x62e683ea3390b7b087ec660aac4e70220840f173 20

Txn Hash Method
Block
From
To
Value [Txn Fee]
0xd8854ce87082ef63147757a5d73c250781fc1b7164980cc2c90ab7166e2bda5cTransfer134777052024-04-14 12:34:201 hr 13 mins ago0x62e683ea3390b7b087ec660aac4e70220840f173OUT Cronos: USDC Token0 CRO0.5050
0xd96dfc1f2ccead2237771bdac83abff352e3dd09f249e95669e90c4c69b89630Transfer134352892024-04-11 17:41:482 days 20 hrs ago0x62e683ea3390b7b087ec660aac4e70220840f173OUT Cronos: USDC Token0 CRO0.5050
0x9ec10aac21c701865e2f44c8bf6219e71ada63f3e08e2f58e392733dbc0df5f8Transfer132934832024-04-02 11:21:1812 days 2 hrs ago0x62e683ea3390b7b087ec660aac4e70220840f173OUT Cronos: PENDLE Token0 CRO0.5050
0x675b263a7e6e93585dfd5ce5b96e3aa53ea2a92c689fd3597ea7a3ea925e51b7Swap Exact Token...127910702024-02-29 20:21:4444 days 17 hrs ago0x62e683ea3390b7b087ec660aac4e70220840f173OUT VVS Finance: Router0 CRO1.874815530
0xd7d8b4aac3f04653d121210375d9505ca401bc7c9e08b464550cc0e3eeff4477Approve127910692024-02-29 20:21:3844 days 17 hrs ago0x62e683ea3390b7b087ec660aac4e70220840f173OUT 0x8d58088d4e8ffe75a8b6357ba5ff17b93b9126400 CRO0.5150318250
0xdfa62ae9bdc406f66666db21724818be7f40f779199e1a628e66993965bd3d59Swap Exact Token...127909972024-02-29 20:14:5744 days 17 hrs ago0x62e683ea3390b7b087ec660aac4e70220840f173OUT VVS Finance: Router0 CRO1.825056870
0x0bc230739beaaaa40ccb54a73976e91a661aec7afb2e2597f7118b2200c565f0Approve127909962024-02-29 20:14:5244 days 17 hrs ago0x62e683ea3390b7b087ec660aac4e70220840f173OUT 0xab9cf8c5a9b6cf5215c82d088d37d04bb146704a0 CRO0.5150318250
0x6cff061cd7c5c4777a32810dca0613be0c30423c87c251aea162e98453c14b26Transfer117496602023-12-24 3:55:31112 days 9 hrs ago0x62e683ea3390b7b087ec660aac4e70220840f173OUT 0xe657b115bc45c0786274c824f83e3e02ce8091850 CRO1.010
0x5782aed7743fc3b0f8fdeb7cd49b0500c5927c8f8576b6a9e8ef1b83d3d97299Transfer117496172023-12-24 3:51:32112 days 9 hrs ago0x62e683ea3390b7b087ec660aac4e70220840f173OUT 0x4907c3fa905103b443c3a3c659cac1b703a235bd0 CRO1.010
0x48ef916198c1f5d49c117ae9dc6c72375cb3e9fc73a4e38dc112ee69d93fad36Transfer117495882023-12-24 3:48:48112 days 9 hrs ago0x62e683ea3390b7b087ec660aac4e70220840f173OUT 0xc9de0f3e08162312528ff72559db82590b4818000 CRO1.010
0x6479bdacd4c691788db705117091f3ea5b16cf9fe144955e3996e4ee44b54394Transfer117487192023-12-24 2:27:42112 days 11 hrs ago0x62e683ea3390b7b087ec660aac4e70220840f173OUT 0x4907c3fa905103b443c3a3c659cac1b703a235bd0 CRO1.010
0x57b4d0b443156063660b3d91cceff167e04e88d02e56082403bdc58289bee39fSwap Exact Token...112036242023-11-18 15:26:34147 days 22 hrs ago0x62e683ea3390b7b087ec660aac4e70220840f173OUT VVS Finance: Router0 CRO1.5053167246980
0xbd57e69d32101bc701318ca23778888fb2653c7ba0131995bcc9bdb409ec1c8bApprove112036242023-11-18 15:26:34147 days 22 hrs ago0x62e683ea3390b7b087ec660aac4e70220840f173OUT Cronos: WETH Token0 CRO0.4724203467860
0x847227facc2d46148568790b06b063bf05f34e7ebd6f4b04c9545a561aa36a60Swap Exact Token...112032442023-11-18 14:51:03147 days 22 hrs ago0x62e683ea3390b7b087ec660aac4e70220840f173OUT VVS Finance: Router0 CRO1.504090442710
0xf032c04d1602c106ca6ceaef77bee57bdf61ba46eefefa8559608cb704e03136Swap Exact Token...112032262023-11-18 14:49:22147 days 22 hrs ago0x62e683ea3390b7b087ec660aac4e70220840f173OUT VVS Finance: Router0 CRO1.2123584644270
0x87248d35afe826b129af54c44f283d544a2e5a3c474b38501d7f6744244fe0e4Approve112032262023-11-18 14:49:22147 days 22 hrs ago0x62e683ea3390b7b087ec660aac4e70220840f173OUT Cronos: XLM Token0 CRO0.4710255105990
0x3792ccb3e9c312202de4a41927ab5adf82f18cd30f7b9648e0cee28308d03fb4Transfer112032072023-11-18 14:47:34147 days 22 hrs agoCrypto.com: CDC Withdrawal IN 0x62e683ea3390b7b087ec660aac4e70220840f17318.15110181 CRO0.18750
0x670072f09ac8a34663f9d3f5392ee7fcac5ba9227bea3599c1bdae842f00875fSwap Exact ETH F...112024692023-11-18 13:38:35148 days 8 mins ago0x62e683ea3390b7b087ec660aac4e70220840f173OUT VVS Finance: Router8.182369235257829 CRO1.0235968710950
0xe4cc11fc62efbf8030b1cc8905e29105bf27f2ec5ad3623e21e12aadb0d9d57bSwap Exact Token...112023422023-11-18 13:26:47148 days 20 mins ago0x62e683ea3390b7b087ec660aac4e70220840f173OUT VVS Finance: Router0 CRO1.5019018389340
0x66e6bb20b53d12bcdc4ee5ff0e98c15d95377a754294d487f829d1aaf31f350aSwap Exact Token...112022872023-11-18 13:21:37148 days 25 mins ago0x62e683ea3390b7b087ec660aac4e70220840f173OUT VVS Finance: Router0 CRO1.5482248191630
0x67d2b8ee8b0e993edbc78b829a59239fb0f489d816ceaed08351cac2c0e0fdbaApprove112022802023-11-18 13:20:57148 days 26 mins ago0x62e683ea3390b7b087ec660aac4e70220840f173OUT 0xa37b89c9fcdee564b95d5ce6ce6d90ad1038ee920 CRO0.4710298043840
0xc1e24713fabee3abcc54682494c13d7e5ab3b14b44fc25d4ec76b2814d601faeSwap Exact Token...112022302023-11-18 13:16:20148 days 31 mins ago0x62e683ea3390b7b087ec660aac4e70220840f173OUT VVS Finance: Router0 CRO1.6679884397040
0xbcbd56dfdded8906ef40eac0caa3f7568a7fbdd5f19bc6b500e4474f17024d6fApprove112022302023-11-18 13:16:20148 days 31 mins ago0x62e683ea3390b7b087ec660aac4e70220840f173OUT 0xeb6b3aeda7a2705fac5e2350fa4d71a64b393b370 CRO0.4710300191550
0xefe3a2aeede8038e9bb3173bf22c86da37810730ad8cb0127ab3a51fa192d617Swap Exact Token...112019792023-11-18 12:52:52148 days 54 mins ago0x62e683ea3390b7b087ec660aac4e70220840f173OUT VVS Finance: Router0 CRO1.7142178318120
0xb6f845a9a65a13b0ff5ca0878cc29619da6d0b4273302886b6d01af3a0c9ed84Approve112019792023-11-18 12:52:52148 days 54 mins ago0x62e683ea3390b7b087ec660aac4e70220840f173OUT 0x4442c740cc5b47f032983106e66e3c9dc945676c0 CRO0.4710311584220
[ Download CSV Export 
Latest 1 internal transaction
Parent Txn Hash Block From To Value
0xf032c04d1602c106ca6ceaef77bee57bdf61ba46eefefa8559608cb704e03136112032262023-11-18 14:49:22147 days 22 hrs ago VVS Finance: Router0x62e683ea3390b7b087ec660aac4e70220840f17323.838031814634389008 CRO
[ Download CSV Export 
Index Block
Loading

Contract Name:
0

Compiler Version
0

Optimization Enabled:
0

Other Settings:
-NA-
Block Transaction Gas Used Reward
Age Block Fee Address BC Fee Address Voting Power Jailed Incoming
Block Uncle Number Difficulty Gas Used Reward
Loading
Loading
Make sure to use the "Vote Down" button for any spammy posts, and the "Vote Up" for interesting conversations.